Weather History for Kaneohe MCBH, HI

Change the Weather History Date:

Tuesday, October 18, 2011

  Actual Average Record
Temperature  
Mean Temperature 76 °F -  
Max Temperature 81 °F 81 °F 84 °F (1996)
Min Temperature 71 °F 72 °F 66 °F (1999)
Cooling Degree Days 11    
Growing Degree Days 26 (Base 50)    
Moisture  
Dew Point 68 °F    
Average Humidity 76    
Maximum Humidity 93    
Minimum Humidity 62    
Precipitation  
Precipitation 0.00 in - - ()
Sea Level Pressure  
Sea Level Pressure 30.02 in    
Wind  
Wind Speed 4 mph (ENE)    
Max Wind Speed 10 mph    
Max Gust Speed 20 mph    
Visibility 10 miles    
Events      
Averages and records for this station are not official NWS values.
T = Trace of Precipitation, MM = Missing Value Source: NWS Daily Summary

Daily Weather History Graph

Daily Weather History Graph

Search for Another Location

Airport:

Trip Planner

Search our weather history database for the weather conditions in past years. The results will help you decide how hot, cold, wet, or windy it might be!

Date:

Astronomy

Oct. 18, 2011 Rise Set
Actual Time 6:27 AM HST 6:04 PM HST
Civil Twilight 6:05 AM HST 6:26 PM HST
Nautical Twilight 5:39 AM HST 6:52 PM HST
Astronomical Twilight 5:13 AM HST 7:18 PM HST
Moon 11:19 PM HST (10/18) 12:02 PM HST (10/18)
Length of Visible Light 12h 21m
Length of Day
11h 36m
Waning Gibbous, 62% of the Moon is Illuminated
Oct 18
Waning Gibbous
Oct 19
Last Quarter
Oct 26
New
Nov 2
First Quarter
Nov 10
Full

Hourly Weather History & Observations

Time (HST) Temp. Heat Index Dew Point Humidity Pressure Visibility Wind Dir Wind Speed Gust Speed Precip Events Conditions
12:18 AM - - - N/A% - - North - - N/A   Unknown
12:57 AM 73.9 °F - 66.0 °F 76% 30.03 in 10.0 mi ESE 3.5 mph - N/A   Scattered Clouds
1:57 AM 75.0 °F - 68.0 °F 79% 30.01 in 10.0 mi Calm Calm - N/A   Mostly Cloudy
2:07 AM 73.4 °F - 68.0 °F 83% 30.03 in 10.0 mi Calm Calm - N/A   Mostly Cloudy
2:16 AM 73.4 °F - 68.0 °F 83% 30.03 in 10.0 mi Calm Calm - N/A   Mostly Cloudy
2:57 AM 73.0 °F - 69.1 °F 87% 30.01 in 10.0 mi Calm Calm - N/A   Overcast
3:57 AM 73.0 °F - 69.1 °F 87% 30.01 in 10.0 mi Calm Calm - N/A   Overcast
4:57 AM 71.1 °F - 68.0 °F 90% 30.01 in 10.0 mi Calm Calm - N/A   Scattered Clouds
5:57 AM 72.0 °F - 69.1 °F 91% 30.02 in 10.0 mi Calm Calm - N/A   Partly Cloudy
6:57 AM 71.1 °F - 69.1 °F 93% 30.03 in 10.0 mi Calm Calm - N/A   Partly Cloudy
7:57 AM 73.9 °F - 66.9 °F 79% 30.04 in 10.0 mi Calm Calm - N/A   Partly Cloudy
8:57 AM 78.1 °F - 66.9 °F 68% 30.06 in 10.0 mi East 6.9 mph - N/A   Partly Cloudy
9:00 AM - - - N/A% - - North - - N/A   Unknown
9:57 AM 81.0 °F 83.8 °F 68.0 °F 65% 30.06 in 10.0 mi ENE 8.1 mph - N/A   Mostly Cloudy
10:00 AM - - - N/A% - - North - - N/A   Unknown
10:57 AM 80.1 °F 82.9 °F 69.1 °F 69% 30.05 in 10.0 mi NE 9.2 mph - N/A   Overcast
11:37 AM 80.6 °F 83.2 °F 68.0 °F 65% 30.05 in 10.0 mi Variable 6.9 mph - N/A   Overcast
11:57 AM 79.0 °F - 66.9 °F 66% 30.04 in 10.0 mi ESE 8.1 mph - N/A   Overcast
12:30 PM - - - N/A% - - North - - N/A   Unknown
12:57 PM 78.1 °F - 68.0 °F 71% 30.01 in 10.0 mi SW 9.2 mph 19.6 mph N/A   Overcast
1:21 PM 77.0 °F - 68.0 °F 74% 30.01 in 10.0 mi Variable 4.6 mph - N/A   Overcast
1:31 PM 77.0 °F - 68.0 °F 74% 30.01 in 10.0 mi Variable 3.5 mph - N/A   Overcast
1:57 PM 80.1 °F 82.1 °F 66.0 °F 62% 29.99 in 10.0 mi East 8.1 mph - N/A   Mostly Cloudy
2:57 PM 78.1 °F - 66.9 °F 68% 29.99 in 10.0 mi NE 4.6 mph - N/A   Overcast
3:08 PM 78.8 °F - 66.2 °F 65% 30.00 in 10.0 mi ENE 4.6 mph - N/A   Overcast
3:18 PM 78.8 °F - 66.2 °F 65% 30.00 in 10.0 mi Variable 5.8 mph - N/A   Overcast
3:57 PM 78.1 °F - 66.9 °F 68% 29.98 in 10.0 mi NE 8.1 mph - N/A   Overcast
4:11 PM 78.8 °F - 66.2 °F 65% 30.00 in 10.0 mi ENE 5.8 mph - N/A   Overcast
4:37 PM 78.8 °F - 66.2 °F 65% 30.00 in 10.0 mi ENE 4.6 mph - N/A   Overcast
4:57 PM 78.1 °F - 66.0 °F 66% 29.99 in 10.0 mi East 3.5 mph - N/A   Overcast
5:06 PM - - - N/A% - - North - - N/A   Unknown
5:15 PM 77.0 °F - 66.2 °F 69% 30.01 in 10.0 mi ESE 6.9 mph - N/A   Mostly Cloudy
5:57 PM 77.0 °F - 66.0 °F 69% 30.01 in 10.0 mi Variable 3.5 mph - N/A   Overcast
6:57 PM 77.0 °F - 66.9 °F 71% 30.02 in 10.0 mi East 4.6 mph - N/A   Overcast
7:57 PM 77.0 °F - 66.2 °F 69% 30.05 in 10.0 mi East 4.6 mph - N/A   Overcast
8:45 PM 73.4 °F - 69.8 °F 88% 30.06 in 10.0 mi West 5.8 mph - N/A   Mostly Cloudy
8:57 PM 75.0 °F - 69.1 °F 82% 30.05 in 10.0 mi WNW 9.2 mph - N/A   Overcast
9:57 PM 73.0 °F - 69.1 °F 87% 30.06 in 10.0 mi NW 4.6 mph - N/A   Mostly Cloudy
10:14 PM 73.4 °F - 69.8 °F 88% 30.07 in 10.0 mi NNW 10.4 mph - N/A   Overcast
10:57 PM 72.0 °F - 69.1 °F 91% 30.05 in 10.0 mi WNW 10.4 mph - N/A   Overcast
11:57 PM 73.0 °F - 69.1 °F 87% 30.04 in 10.0 mi West 4.6 mph - N/A   Overcast